This is the latest recevied weather packets stored in our database for station/object KD2SIG. If no packets are shown the sender has not sent any weather packets the latest 10 day(s).
| Time | Temp. | Humidity | Pressure | Rain* | Wind** | Luminosity | Snow |
|---|---|---|---|---|---|---|---|
| 1777920241 | 20° C | 50% | 1005.4 hPa | 0 mm | - | 631 W/m² | - |
| 1777919937 | 20° C | 52% | 1005.3 hPa | 0 mm | - | 655 W/m² | - |
| 1777919634 | 20° C | 51% | 1005.4 hPa | 0 mm | - | 615 W/m² | - |
| 1777919332 | 20° C | 50% | 1005.5 hPa | 0 mm | - | 603 W/m² | - |
| 1777919029 | 19.44° C | 52% | 1005.4 hPa | 0 mm | - | 675 W/m² | - |
| 1777918725 | 18.89° C | 52% | 1005.4 hPa | 0 mm | - | 714 W/m² | - |
| 1777918423 | 19.44° C | 51% | 1005.7 hPa | 0 mm | - | 665 W/m² | - |
| 1777918122 | 19.44° C | 52% | 1005.7 hPa | 0 mm | - | 733 W/m² | - |
| 1777917820 | 20° C | 52% | 1005.8 hPa | 0 mm | - | 727 W/m² | - |
| 1777917518 | 19.44° C | 52% | 1005.7 hPa | 0 mm | - | 707 W/m² | - |
| 1777917214 | 18.89° C | 51% | 1005.9 hPa | 0 mm | - | 659 W/m² | - |
| 1777916913 | 18.89° C | 53% | 1006 hPa | 0 mm | - | 711 W/m² | - |
| 1777916610 | 18.33° C | 52% | 1005.9 hPa | 0 mm | - | 710 W/m² | - |
| 1777916306 | 18.89° C | 53% | 1006.1 hPa | 0 mm | - | 687 W/m² | - |
| 1777916003 | 18.33° C | 53% | 1006.2 hPa | 0 mm | - | 714 W/m² | - |
| 1777915700 | 18.33° C | 52% | 1006.1 hPa | 0 mm | - | 656 W/m² | - |
| 1777915397 | 18.33° C | 53% | 1006.5 hPa | 0 mm | - | 721 W/m² | - |
| 1777915093 | 18.33° C | 53% | 1006.1 hPa | 0 mm | - | 719 W/m² | - |
| 1777914790 | 17.78° C | 53% | 1006.3 hPa | 0 mm | - | 723 W/m² | - |
| 1777914487 | 18.33° C | 52% | 1006.4 hPa | 0 mm | - | 720 W/m² | - |
| 1777914184 | 17.78° C | 52% | 1006.4 hPa | 0 mm | - | 724 W/m² | - |
| 1777913880 | 17.78° C | 53% | 1006.4 hPa | 0 mm | - | 734 W/m² | - |
| 1777913577 | 17.78° C | 53% | 1006.5 hPa | 0 mm | - | 717 W/m² | - |
| 1777913273 | 17.22° C | 53% | 1006.7 hPa | 0 mm | - | 709 W/m² | - |
| 1777912970 | 17.22° C | 53% | 1006.8 hPa | 0 mm | - | 728 W/m² | - |
* Rain latest hour (hover to see other rain measurements)
** Current wind speed in m/s (hover to see current wind gust speed)